Preview of NWS' New Version of Forecast
This preview is not operational and should not be used for support decisions.

Regional Weather Roundup (RWR)

Issued by Gray - Portland, ME (GYX)

                            
000
ASUS41 KGYX 251905
RWRGYX
WEATHER ROUNDUP FOR MAINE AND NEW HAMPSHIRE
NATIONAL WEATHER SERVICE GRAY ME
300 PM EDT SAT MAY 25 2019

MEZ002-005-006-010-012-015-018-020-021-024-026-027-029-252000-
MAINE
  
CITY           SKY/WX    TMP DP  RH WIND       PRES   REMARKS
PORTLAND       PTSUNNY   67  44  43 S14       30.13F                  
SANFORD        FAIR      70  46  42 S8        30.13F                  
BAR HARBOR     FAIR      65  44  46 SW16      30.12F                  
WISCASSET      FAIR      68  41  37 S9G18     30.14F                  
ROCKLAND       FAIR      63  49  60 S8        30.14S                  
FRYEBURG       FAIR      73  40  30 VRB6      30.10F                  
LEWISTONAUBURN FAIR      72  46  39 S12G17    30.10F                  
AUGUSTA        FAIR      74  41  30 S9        30.10F                  
WATERVILLE     FAIR      73  42  32 VRB6      30.07F                  
BANGOR         CLOUDY    74  38  27 E6        30.09F                  
GREENVILLE       N/A     71  38  29 CALM      30.06F                  
MILLINOCKET    FAIR      74  37  26 VRB5      30.07F                  
HOULTON        FAIR      72  36  26 VRB5      30.04F                  
PRESQUE ISLE   FAIR      71  38  29 W7        30.05F                  
FRENCHVILLE    FAIR      71  36  27 SE9       30.03F                  
CARIBOU        FAIR      72  39  30 SW8       30.03F                  
$$

NHZ002-005-008-009-011-012-014-252000-
NEW HAMPSHIRE
  
CITY           SKY/WX    TMP DP  RH WIND       PRES   REMARKS
ROCHESTER      FAIR      71  45  39 SE10G16   30.12F                  
NASHUA         FAIR      75  45  34 VRB7      30.12F                  
MANCHESTER     PTSUNNY   75  39  27 S10       30.11F                  
CONCORD        FAIR      72  43  35 S8        30.12F                  
LACONIA        FAIR      71  43  36 S9        30.11F                  
PLYMOUTH       FAIR      71  42  34 CALM      30.09F                  
BERLIN         FAIR      73  42  32 SW6       30.06F                  
WHITEFIELD     FAIR      70  45  40 W9        30.08F                  
JAFFREY        FAIR      72  37  28 SW10G18   30.14F                  
KEENE          FAIR      73  43  33 S12G18    30.11F                  
LEBANON        FAIR      72  42  34 S15       30.09F                  
MT WASHINGTON  PTSUNNY   46  36  66 S8          N/A                   
$$

VTZ005-007-008-252000-
VERMONT
  
CITY           SKY/WX    TMP DP  RH WIND       PRES   REMARKS
ST JOHNSBURY     N/A     68  40  35 MISG      30.07F                  
MONTPELIER     FAIR      66  44  45 S13       30.12F                  
BURLINGTON     CLOUDY    68  46  45 S12G21    30.05F                  
$$

MAZ007-012-024-CTZ003-RIZ002-NYZ038-NYZ072-252000-
SOUTHERN NEW ENGLAND AND NY
  
CITY           SKY/WX    TMP DP  RH WIND       PRES   REMARKS
BOSTON         PTSUNNY   67  47  48 E18       30.14F                  
WORCESTER      FAIR      70  46  42 VRB6      30.14F                  
NANTUCKET      FAIR      68  49  50 W10       30.19S                  
PROVIDENCE     FAIR      71  44  37 S20G25    30.15F                  
HARTFORD       PTSUNNY   75  48  38 S14G22    30.12F                  
ALBANY         PTSUNNY   71  51  49 SE14G20   30.08F                  
NEW YORK CITY  PTSUNNY   68  48  48 SE18G25   30.17F                  
$$

ANZ081-ANZ082-ANZ150-NHZ014-MEZ023>029-252000-
COASTAL MARINE OBSERVATIONS
  
STATION/POSITION TIME  TEMP    WIND        PRES    WAVE
                       AIR SEA DIR/SP/G            HT/PER
                 (UTC) (F)     (DEG/KT/KT) (MB)    (FT/S)
ISLE OF SHOALS   1800   60     130/ 16/ 16 1020.7F
JEFFREYS LEDGE   1838      52                N/A     3/ 9
GEORGES BANK BUO 1840   47 45  350/  6/  8 1021.8F
$$

.............KEY..............
   WCI - WIND CHILL
   TC  - TEMPERATURE IN CELSIUS
   VSB - VISIBILITY IN MILES
   HX  - HEAT INDEX
   FAIR- INDICATES FEW OR NO CLOUDS BELOW 12,000 FT, WITH NO 
         SIGNIFICANT WEATHER AND/OR OBSTRUCTIONS TO VISIBILITY.